| time (UTC) | temp C | wind direction | speed KPH | gust KPH | rain 1hr cm | rain 24hr cm | rain mn cm | humidity % | barometer mb |
| 20260901081458 | 21 | 276 | 0.0 | 0.0 | 0.00 | 0.28 | 0.00 | 90 | 1012.5 |
| 20260901080958 | 21 | 276 | 0.0 | 0.0 | 0.00 | 0.28 | 0.00 | 90 | 1012.3 |
| 20260901080458 | 21 | 276 | 0.0 | 0.0 | 0.00 | 0.28 | 0.00 | 90 | 1012.3 |
| 20260901075958 | 21 | 276 | 0.0 | 0.0 | 0.00 | 0.28 | 0.00 | 90 | 1012.3 |
| 20260901075459 | 21 | 276 | 0.0 | 0.0 | 0.00 | 0.28 | 0.00 | 90 | 1012.3 |
| 20260901074958 | 21 | 276 | 0.0 | 0.0 | 0.00 | 0.28 | 0.00 | 89 | 1012.2 |
| 20260901063958 | 21 | 303 | 0.0 | 0.0 | 0.00 | 0.28 | 0.00 | 88 | 1012.1 |
| 20260901063458 | 21 | 303 | 0.0 | 0.0 | 0.00 | 0.28 | 0.00 | 88 | 1012.3 |
| 20260901062958 | 21 | 303 | 0.0 | 0.0 | 0.00 | 0.28 | 0.00 | 88 | 1012.2 |
| 20260901062458 | 21 | 303 | 0.0 | 0.0 | 0.00 | 0.28 | 0.00 | 88 | 1012.2 |
| 20260901061958 | 21 | 303 | 0.0 | 0.0 | 0.00 | 0.28 | 0.00 | 88 | 1012.2 |
| 20260901061458 | 21 | 303 | 0.0 | 0.0 | 0.00 | 0.28 | 0.00 | 88 | 1012.2 |
| 20260901060959 | 21 | 303 | 0.0 | 0.0 | 0.00 | 0.28 | 0.00 | 88 | 1012.2 |
| 20260901053459 | 22 | 303 | 0.0 | 1.6 | 0.00 | 0.28 | 0.00 | 88 | 1012.5 |
| 20260901052958 | 22 | 320 | 0.0 | 0.0 | 0.00 | 0.28 | 0.00 | 88 | 1012.5 |
| 20260901052459 | 22 | 320 | 0.0 | 3.2 | 0.00 | 0.28 | 0.00 | 88 | 1012.5 |
| 20260901052000 | 22 | 320 | 0.0 | 3.2 | 0.00 | 0.28 | 0.00 | 88 | 1012.4 |
| 20260901051458 | 22 | 299 | 0.0 | 1.6 | 0.00 | 0.28 | 0.00 | 87 | 1012.5 |
| 20260901050958 | 22 | 299 | 0.0 | 1.6 | 0.00 | 0.28 | 0.00 | 87 | 1012.4 |
| 20260901050458 | 22 | 299 | 0.0 | 1.6 | 0.00 | 0.28 | 0.00 | 87 | 1012.4 |
| 20260901045959 | 22 | 299 | 0.0 | 1.6 | 0.00 | 0.28 | 0.00 | 86 | 1012.4 |
| 20260901045459 | 22 | 299 | 0.0 | 0.0 | 0.00 | 0.28 | 0.00 | 86 | 1012.5 |
| 20260901044958 | 22 | 299 | 0.0 | 0.0 | 0.00 | 0.28 | 0.00 | 86 | 1012.5 |
| 20260901044459 | 22 | 299 | 0.0 | 0.0 | 0.00 | 0.28 | 0.00 | 86 | 1012.4 |
| 20260901043959 | 22 | 299 | 0.0 | 0.0 | 0.00 | 0.28 | 0.00 | 86 | 1012.4 |
| 20260901043458 | 22 | 299 | 0.0 | 0.0 | 0.00 | 0.28 | 0.00 | 86 | 1012.4 |
| 20260901042959 | 22 | 299 | 0.0 | 0.0 | 0.00 | 0.28 | 0.00 | 86 | 1012.4 |
| 20260901042459 | 22 | 299 | 0.0 | 0.0 | 0.00 | 0.28 | 0.00 | 86 | 1012.4 |
| 20260901041958 | 23 | 299 | 0.0 | 0.0 | 0.00 | 0.28 | 0.00 | 86 | 1012.5 |
| 20260901041459 | 23 | 299 | 0.0 | 0.0 | 0.00 | 0.28 | 0.00 | 86 | 1012.5 |
| 20260901040959 | 23 | 299 | 0.0 | 1.6 | 0.00 | 0.28 | 0.00 | 86 | 1012.5 |
| 20260901040459 | 23 | 299 | 0.0 | 1.6 | 0.00 | 0.28 | 0.00 | 86 | 1012.6 |
| 20260901040005 | 23 | 299 | 0.0 | 0.0 | 0.00 | 0.28 | 0.00 | 86 | 1012.6 |
| 20260901035459 | 23 | 299 | 0.0 | 0.0 | 0.00 | 0.28 | 0.28 | 86 | 1012.7 |
| 20260901035000 | 23 | 299 | 0.0 | 0.0 | 0.00 | 0.28 | 0.28 | 86 | 1012.5 |
| 20260901034459 | 23 | 299 | 0.0 | 1.6 | 0.00 | 0.28 | 0.28 | 86 | 1012.6 |
| 20260901034000 | 23 | 349 | 0.0 | 1.6 | 0.00 | 0.28 | 0.28 | 86 | 1012.7 |
| 20260901033459 | 23 | 349 | 0.0 | 1.6 | 0.00 | 0.28 | 0.28 | 86 | 1012.6 |
| 20260901032959 | 23 | 349 | 0.0 | 3.2 | 0.00 | 0.28 | 0.28 | 86 | 1012.6 |
| 20260901032459 | 23 | 221 | 0.0 | 3.2 | 0.00 | 0.28 | 0.28 | 85 | 1012.4 |
| 20260901031959 | 23 | 228 | 0.0 | 1.6 | 0.00 | 0.28 | 0.28 | 85 | 1012.5 |
| 20260901031459 | 24 | 227 | 0.0 | 1.6 | 0.00 | 0.28 | 0.28 | 85 | 1012.5 |
| 20260901031000 | 24 | 226 | 0.0 | 3.2 | 0.00 | 0.28 | 0.28 | 85 | 1012.7 |
| 20260901030500 | 24 | 232 | 0.0 | 3.2 | 0.00 | 0.28 | 0.28 | 85 | 1012.6 |
| 20260901030000 | 24 | 290 | 0.0 | 3.2 | 0.00 | 0.28 | 0.28 | 85 | 1012.6 |
| 20260901025500 | 24 | 307 | 0.0 | 1.6 | 0.00 | 0.28 | 0.28 | 85 | 1012.7 |
| 20260901021959 | 24 | 286 | 4.8 | 14.5 | 0.00 | 0.28 | 0.28 | 85 | 1012.3 |
| 20260901021459 | 24 | 242 | 0.0 | 6.4 | 0.00 | 0.28 | 0.28 | 85 | 1012.4 |
| 20260901020959 | 24 | 243 | 0.0 | 4.8 | 0.00 | 0.28 | 0.28 | 84 | 1012.6 |
| 20260901020459 | 24 | 207 | 1.6 | 4.8 | 0.00 | 0.28 | 0.28 | 84 | 1012.5 |
| 20260901015959 | 25 | 280 | 0.0 | 1.6 | 0.00 | 0.28 | 0.28 | 84 | 1012.5 |
| 20260901015459 | 25 | 327 | 0.0 | 1.6 | 0.00 | 0.28 | 0.28 | 84 | 1012.4 |
| 20260901014959 | 25 | 226 | 0.0 | 1.6 | 0.00 | 0.28 | 0.28 | 84 | 1012.4 |
| 20260901014459 | 25 | 225 | 0.0 | 1.6 | 0.00 | 0.28 | 0.28 | 84 | 1012.4 |
| 20260901014000 | 25 | 245 | 0.0 | 1.6 | 0.00 | 0.28 | 0.28 | 84 | 1012.5 |
| 20260901013459 | 25 | 245 | 0.0 | 3.2 | 0.00 | 0.28 | 0.28 | 84 | 1012.3 |
| 20260901012959 | 25 | 245 | 0.0 | 4.8 | 0.00 | 0.28 | 0.28 | 84 | 1012.4 |
| 20260901012459 | 25 | 288 | 1.6 | 4.8 | 0.00 | 0.28 | 0.28 | 84 | 1012.4 |
| 20260901011958 | 25 | 313 | 1.6 | 4.8 | 0.00 | 0.28 | 0.28 | 83 | 1012.4 |
| 20260901011459 | 25 | 234 | 1.6 | 4.8 | 0.00 | 0.28 | 0.28 | 83 | 1012.3 |
| 20260901010959 | 25 | 262 | 0.0 | 4.8 | 0.00 | 0.28 | 0.28 | 83 | 1012.3 |
| 20260901010459 | 25 | 296 | 3.2 | 6.4 | 0.00 | 0.28 | 0.28 | 83 | 1012.1 |
| 20260901010000 | 25 | 201 | 1.6 | 6.4 | 0.00 | 0.28 | 0.28 | 83 | 1012.2 |
| 20260901005459 | 25 | 209 | 0.0 | 4.8 | 0.00 | 0.28 | 0.28 | 83 | 1012.2 |
| 20260901004959 | 25 | 192 | 1.6 | 4.8 | 0.00 | 0.28 | 0.28 | 83 | 1012.2 |
| 20260901004459 | 25 | 238 | 1.6 | 6.4 | 0.00 | 0.28 | 0.28 | 83 | 1012.3 |
| 20260901003959 | 25 | 200 | 3.2 | 6.4 | 0.00 | 0.28 | 0.28 | 83 | 1012.3 |
| 20260901003459 | 25 | 296 | 0.0 | 8.0 | 0.00 | 0.28 | 0.28 | 83 | 1012.3 |
| 20260901002959 | 25 | 251 | 3.2 | 4.8 | 0.00 | 0.28 | 0.28 | 83 | 1012.3 |
| 20260901002459 | 25 | 266 | 1.6 | 6.4 | 0.00 | 0.28 | 0.28 | 83 | 1012.3 |
| 20260901001959 | 25 | 241 | 3.2 | 6.4 | 0.00 | 0.28 | 0.28 | 83 | 1012.3 |
| 20260901001459 | 25 | 212 | 1.6 | 8.0 | 0.00 | 0.28 | 0.28 | 83 | 1012.2 |
| 20260901001000 | 25 | 343 | 3.2 | 9.7 | 0.00 | 0.28 | 0.28 | 83 | 1012.1 |
| 20260901000459 | 25 | 219 | 1.6 | 4.8 | 0.00 | 0.28 | 0.28 | 83 | 1012.1 |
| 20260901000001 | 25 | 230 | 1.6 | 8.0 | 0.00 | 0.28 | 0.28 | 83 | 1012.0 |
| 20260831235500 | 25 | 197 | 3.2 | 8.0 | 0.00 | 0.28 | 0.28 | 84 | 1011.9 |
| 20260831235000 | 25 | 207 | 1.6 | 6.4 | 0.00 | 0.28 | 0.28 | 84 | 1011.8 |
| 20260831234501 | 25 | 213 | 1.6 | 4.8 | 0.00 | 0.28 | 0.28 | 84 | 1011.9 |
| 20260831234000 | 26 | 180 | 0.0 | 4.8 | 0.00 | 0.28 | 0.28 | 84 | 1011.9 |
| 20260831233504 | 26 | 244 | 0.0 | 1.6 | 0.00 | 0.28 | 0.28 | 84 | 1011.9 |
| 20260831233000 | 26 | 222 | 0.0 | 1.6 | 0.00 | 0.28 | 0.28 | 84 | 1011.8 |
| 20260831232500 | 26 | 222 | 0.0 | 0.0 | 0.00 | 0.28 | 0.28 | 84 | 1011.8 |
| 20260831231959 | 26 | 222 | 0.0 | 4.8 | 0.00 | 0.28 | 0.28 | 84 | 1011.9 |
| 20260831231500 | 26 | 222 | 0.0 | 4.8 | 0.00 | 0.28 | 0.28 | 83 | 1012.0 |
| 20260831231000 | 26 | 185 | 0.0 | 4.8 | 0.00 | 0.28 | 0.28 | 83 | 1012.0 |
| 20260831230501 | 26 | 205 | 1.6 | 4.8 | 0.00 | 0.28 | 0.28 | 83 | 1011.9 |
| 20260831225959 | 26 | 232 | 0.0 | 4.8 | 0.00 | 0.28 | 0.28 | 83 | 1011.9 |
| 20260831225459 | 26 | 234 | 1.6 | 4.8 | 0.00 | 0.28 | 0.28 | 83 | 1011.8 |
| 20260831224959 | 26 | 174 | 0.0 | 4.8 | 0.00 | 0.28 | 0.28 | 82 | 1011.7 |
| 20260831224459 | 26 | 196 | 1.6 | 6.4 | 0.00 | 0.28 | 0.28 | 82 | 1011.8 |
| 20260831224000 | 26 | 276 | 0.0 | 9.7 | 0.00 | 0.28 | 0.28 | 82 | 1011.6 |
| 20260831223459 | 26 | 192 | 1.6 | 6.4 | 0.00 | 0.28 | 0.28 | 81 | 1011.6 |
| 20260831215459 | 27 | 260 | 4.8 | 19.3 | 0.00 | 0.28 | 0.28 | 75 | 1011.7 |
| 20260831214959 | 27 | 205 | 3.2 | 12.9 | 0.00 | 0.28 | 0.28 | 75 | 1011.8 |
| 20260831214458 | 27 | 203 | 3.2 | 12.9 | 0.00 | 0.28 | 0.28 | 76 | 1011.7 |
| 20260831213959 | 27 | 184 | 8.0 | 14.5 | 0.00 | 0.28 | 0.28 | 74 | 1011.7 |
| 20260831213500 | 27 | 159 | 1.6 | 12.9 | 0.00 | 0.28 | 0.28 | 78 | 1011.8 |
| 20260831212959 | 27 | 30 | 1.6 | 12.9 | 0.00 | 0.28 | 0.28 | 75 | 1011.8 |
| 20260831212459 | 27 | 297 | 3.2 | 11.3 | 0.00 | 0.28 | 0.28 | 75 | 1011.7 |
| 20260831211802 | 27 | 176 | 4.8 | 16.1 | 0.00 | 0.28 | 0.28 | 74 | 1011.7 |
| 20260831211303 | 27 | 196 | 3.2 | 12.9 | 0.00 | 0.28 | 0.28 | 75 | 1011.7 |
| 20260831210803 | 27 | 151 | 4.8 | 17.7 | 0.00 | 0.28 | 0.28 | 74 | 1011.7 |
| 20260831210302 | 27 | 228 | 6.4 | 17.7 | 0.00 | 0.28 | 0.28 | 73 | 1011.7 |
| 20260831205802 | 27 | 187 | 4.8 | 14.5 | 0.00 | 0.28 | 0.28 | 74 | 1011.8 |
| 20260831205305 | 27 | 207 | 4.8 | 16.1 | 0.00 | 0.28 | 0.28 | 73 | 1011.8 |
| 20260831195306 | 26 | 212 | 3.2 | 20.9 | 0.00 | 0.28 | 0.28 | 79 | 1012.1 |
| 20260831194804 | 26 | 186 | 6.4 | 20.9 | 0.00 | 0.28 | 0.28 | 76 | 1012.0 |
| 20260831194303 | 27 | 97 | 4.8 | 9.7 | 0.00 | 0.28 | 0.28 | 78 | 1012.1 |
| 20260831193804 | 27 | 257 | 1.6 | 12.9 | 0.00 | 0.28 | 0.28 | 76 | 1012.2 |
| 20260831193304 | 26 | 173 | 3.2 | 14.5 | 0.00 | 0.28 | 0.28 | 79 | 1012.3 |
| 20260831192804 | 25 | 284 | 6.4 | 14.5 | 0.00 | 0.28 | 0.28 | 82 | 1012.3 |
| 20260831192305 | 25 | 155 | 3.2 | 9.7 | 0.00 | 0.28 | 0.28 | 84 | 1012.4 |
| 20260831191803 | 24 | 224 | 3.2 | 9.7 | 0.00 | 0.28 | 0.28 | 84 | 1012.4 |
| 20260831191303 | 24 | 228 | 3.2 | 16.1 | 0.00 | 0.28 | 0.28 | 84 | 1012.5 |
| 20260831190803 | 23 | 236 | 3.2 | 11.3 | 0.00 | 0.28 | 0.28 | 85 | 1013.0 |
| 20260831190304 | 23 | 223 | 3.2 | 12.9 | 0.00 | 0.28 | 0.28 | 85 | 1013.0 |
| 20260831185802 | 23 | 182 | 3.2 | 12.9 | 0.00 | 0.28 | 0.28 | 85 | 1013.0 |
| 20260831185301 | 23 | 192 | 1.6 | 4.8 | 0.00 | 0.28 | 0.28 | 85 | 1013.1 |
| 20260831184802 | 24 | 105 | 0.0 | 3.2 | 0.00 | 0.28 | 0.28 | 84 | 1013.3 |
| 20260831184302 | 24 | 155 | 0.0 | 4.8 | 0.00 | 0.28 | 0.28 | 84 | 1013.4 |
| 20260831183802 | 24 | 221 | 0.0 | 4.8 | 0.00 | 0.28 | 0.28 | 84 | 1013.3 |
| 20260831183302 | 24 | 181 | 0.0 | 4.8 | 0.00 | 0.28 | 0.28 | 84 | 1012.9 |
| 20260831182803 | 24 | 217 | 1.6 | 8.0 | 0.00 | 0.28 | 0.28 | 84 | 1012.9 |
| 20260831182305 | 24 | 178 | 1.6 | 3.2 | 0.00 | 0.28 | 0.28 | 84 | 1013.3 |
| 20260831181802 | 25 | 157 | 1.6 | 4.8 | 0.00 | 0.28 | 0.28 | 84 | 1013.4 |
| 20260831181302 | 25 | 170 | 1.6 | 4.8 | 0.00 | 0.28 | 0.28 | 83 | 1013.8 |
| 20260831173303 | 26 | 147 | 3.2 | 11.3 | 0.00 | 0.28 | 0.28 | 83 | 1013.4 |
| 20260831172803 | 26 | 253 | 3.2 | 11.3 | 0.00 | 0.28 | 0.28 | 82 | 1013.3 |
| 20260831172306 | 25 | 192 | 3.2 | 9.7 | 0.00 | 0.28 | 0.28 | 82 | 1013.4 |
| 20260831171802 | 25 | 172 | 3.2 | 11.3 | 0.00 | 0.28 | 0.28 | 83 | 1013.3 |
| 20260831171303 | 25 | 266 | 3.2 | 11.3 | 0.00 | 0.28 | 0.28 | 84 | 1013.3 |
| 20260831170803 | 25 | 205 | 4.8 | 11.3 | 0.00 | 0.28 | 0.28 | 83 | 1013.4 |
| 20260831170304 | 25 | 130 | 1.6 | 12.9 | 0.00 | 0.28 | 0.28 | 84 | 1013.4 |
| 20260831165802 | 25 | 226 | 3.2 | 11.3 | 0.00 | 0.28 | 0.28 | 82 | 1013.4 |
| 20260831165305 | 25 | 139 | 4.8 | 11.3 | 0.00 | 0.28 | 0.28 | 83 | 1013.6 |
| 20260831164803 | 25 | 224 | 4.8 | 12.9 | 0.00 | 0.28 | 0.28 | 86 | 1014.0 |
| 20260831164302 | 25 | 219 | 1.6 | 9.7 | 0.00 | 0.28 | 0.28 | 86 | 1014.0 |
| 20260831163802 | 25 | 242 | 3.2 | 9.7 | 0.00 | 0.28 | 0.28 | 85 | 1014.0 |
| 20260831163302 | 24 | 187 | 3.2 | 8.0 | 0.00 | 0.28 | 0.28 | 86 | 1013.8 |
| 20260831162803 | 24 | 208 | 3.2 | 12.9 | 0.00 | 0.28 | 0.28 | 88 | 1013.8 |
| 20260831162301 | 23 | 215 | 6.4 | 12.9 | 0.00 | 0.28 | 0.28 | 88 | 1013.9 |
| 20260831161802 | 23 | 200 | 3.2 | 14.5 | 0.00 | 0.28 | 0.28 | 89 | 1014.0 |
| 20260831161302 | 23 | 204 | 3.2 | 14.5 | 0.00 | 0.28 | 0.28 | 89 | 1014.2 |
| 20260831160803 | 23 | 199 | 1.6 | 11.3 | 0.00 | 0.28 | 0.28 | 90 | 1014.2 |
| 20260831160301 | 22 | 179 | 4.8 | 11.3 | 0.00 | 0.28 | 0.28 | 89 | 1014.3 |
| 20260831155803 | 22 | 271 | 1.6 | 9.7 | 0.00 | 0.28 | 0.28 | 90 | 1014.4 |
| 20260831155302 | 22 | 230 | 1.6 | 11.3 | 0.00 | 0.28 | 0.28 | 90 | 1014.3 |
| 20260831154802 | 22 | 225 | 4.8 | 11.3 | 0.00 | 0.28 | 0.28 | 90 | 1014.2 |
| 20260831154303 | 22 | 181 | 1.6 | 6.4 | 0.00 | 0.28 | 0.28 | 90 | 1014.2 |
| 20260831153802 | 22 | 143 | 1.6 | 8.0 | 0.00 | 0.28 | 0.28 | 91 | 1014.3 |
| 20260831153301 | 22 | 182 | 3.2 | 8.0 | 0.00 | 0.28 | 0.28 | 91 | 1014.4 |
| 20260831152801 | 22 | 232 | 1.6 | 6.4 | 0.03 | 0.28 | 0.28 | 91 | 1014.6 |
| 20260831152305 | 22 | 216 | 1.6 | 4.8 | 0.20 | 0.28 | 0.28 | 91 | 1014.3 |
| 20260831151802 | 22 | 175 | 1.6 | 4.8 | 0.20 | 0.28 | 0.28 | 91 | 1014.5 |
| 20260831143801 | 21 | 67 | 0.0 | 4.8 | 0.25 | 0.28 | 0.28 | 91 | 1015.1 |
| 20260831143301 | 21 | 67 | 1.6 | 4.8 | 0.25 | 0.28 | 0.28 | 91 | 1014.9 |
| 20260831142802 | 21 | 59 | 0.0 | 3.2 | 0.25 | 0.25 | 0.25 | 91 | 1014.6 |
| 20260831142305 | 21 | 59 | 0.0 | 0.0 | 0.08 | 0.08 | 0.08 | 91 | 1014.8 |
| 20260831141802 | 21 | 59 | 0.0 | 4.8 | 0.08 | 0.08 | 0.08 | 91 | 1015.0 |
| 20260831141302 | 21 | 46 | 3.2 | 4.8 | 0.08 | 0.08 | 0.08 | 91 | 1014.7 |
| 20260831140801 | 21 | 271 | 0.0 | 1.6 | 0.08 | 0.08 | 0.08 | 91 | 1014.6 |
| 20260831140302 | 21 | 271 | 0.0 | 0.0 | 0.05 | 0.08 | 0.05 | 91 | 1014.8 |
| 20260831135802 | 21 | 271 | 0.0 | 0.0 | 0.05 | 0.08 | 0.05 | 91 | 1014.8 |
| 20260831135302 | 21 | 271 | 0.0 | 0.0 | 0.05 | 0.08 | 0.05 | 90 | 1014.8 |
| 20260831134802 | 21 | 271 | 0.0 | 0.0 | 0.05 | 0.08 | 0.05 | 91 | 1014.8 |
| 20260831134302 | 21 | 271 | 0.0 | 0.0 | 0.05 | 0.08 | 0.05 | 91 | 1015.1 |
| 20260831133802 | 21 | 271 | 0.0 | 0.0 | 0.03 | 0.05 | 0.03 | 91 | 1015.2 |
| 20260831133302 | 21 | 271 | 0.0 | 0.0 | 0.03 | 0.05 | 0.03 | 91 | 1015.4 |
| 20260831132801 | 21 | 271 | 0.0 | 0.0 | 0.00 | 0.03 | 0.00 | 91 | 1015.4 |
| 20260831132306 | 21 | 271 | 0.0 | 0.0 | 0.00 | 0.03 | 0.00 | 91 | 1015.4 |
| 20260831131801 | 21 | 271 | 0.0 | 0.0 | 0.00 | 0.03 | 0.00 | 91 | 1015.2 |
| 20260831131302 | 21 | 271 | 0.0 | 0.0 | 0.00 | 0.03 | 0.00 | 90 | 1015.2 |
| 20260831130802 | 21 | 271 | 0.0 | 0.0 | 0.00 | 0.03 | 0.00 | 90 | 1015.0 |
| 20260831130305 | 21 | 271 | 0.0 | 1.6 | 0.00 | 0.03 | 0.00 | 90 | 1015.0 |
| 20260831125803 | 21 | 271 | 0.0 | 1.6 | 0.00 | 0.15 | 0.00 | 90 | 1014.9 |
| 20260831121802 | 21 | 271 | 1.6 | 4.8 | 0.00 | 0.15 | 0.00 | 91 | 1014.1 |
| 20260831121302 | 20 | 234 | 1.6 | 6.4 | 0.00 | 0.15 | 0.00 | 91 | 1013.9 |
| 20260831120802 | 20 | 186 | 1.6 | 6.4 | 0.00 | 0.15 | 0.00 | 91 | 1013.8 |
| 20260831120304 | 20 | 210 | 1.6 | 3.2 | 0.00 | 0.15 | 0.00 | 90 | 1013.9 |
| 20260831115803 | 20 | 192 | 0.0 | 1.6 | 0.00 | 0.61 | 0.00 | 90 | 1014.1 |
| 20260831115305 | 20 | 192 | 0.0 | 1.6 | 0.00 | 0.61 | 0.00 | 90 | 1014.2 |
| 20260831114802 | 20 | 192 | 0.0 | 1.6 | 0.00 | 0.61 | 0.00 | 91 | 1014.1 |
| 20260831114302 | 20 | 203 | 0.0 | 1.6 | 0.00 | 0.61 | 0.00 | 90 | 1014.1 |
| 20260831113803 | 20 | 204 | 0.0 | 1.6 | 0.00 | 0.61 | 0.00 | 90 | 1014.1 |
| 20260831113301 | 20 | 220 | 0.0 | 3.2 | 0.00 | 0.61 | 0.00 | 90 | 1014.0 |
| 20260831112801 | 20 | 41 | 0.0 | 1.6 | 0.00 | 0.61 | 0.00 | 90 | 1013.9 |
| 20260831112306 | 20 | 159 | 0.0 | 3.2 | 0.00 | 0.61 | 0.00 | 90 | 1013.8 |
| 20260831111802 | 20 | 159 | 1.6 | 3.2 | 0.00 | 0.61 | 0.00 | 90 | 1013.8 |
| 20260831111302 | 20 | 221 | 0.0 | 1.6 | 0.00 | 0.61 | 0.00 | 90 | 1013.8 |
| 20260831110802 | 20 | 221 | 0.0 | 1.6 | 0.00 | 0.61 | 0.00 | 90 | 1013.8 |
| 20260831110302 | 20 | 221 | 0.0 | 1.6 | 0.00 | 1.07 | 0.00 | 90 | 1013.8 |
| 20260831105801 | 20 | 221 | 0.0 | 4.8 | 0.00 | 1.07 | 0.00 | 90 | 1013.7 |
| 20260831105305 | 20 | 157 | 0.0 | 4.8 | 0.00 | 1.07 | 0.00 | 90 | 1013.7 |
| 20260831104801 | 20 | 163 | 1.6 | 4.8 | 0.00 | 1.07 | 0.00 | 90 | 1013.8 |
| 20260831104302 | 20 | 213 | 0.0 | 1.6 | 0.00 | 1.07 | 0.00 | 90 | 1013.8 |
| 20260831103801 | 20 | 336 | 0.0 | 1.6 | 0.00 | 1.07 | 0.00 | 90 | 1013.9 |
| 20260831103302 | 20 | 336 | 0.0 | 0.0 | 0.00 | 1.07 | 0.00 | 90 | 1013.9 |
| 20260831102802 | 20 | 336 | 0.0 | 0.0 | 0.00 | 1.07 | 0.00 | 90 | 1014.0 |
| 20260831102305 | 20 | 336 | 0.0 | 0.0 | 0.00 | 1.07 | 0.00 | 90 | 1014.1 |
| 20260831101802 | 20 | 336 | 0.0 | 0.0 | 0.00 | 1.07 | 0.00 | 90 | 1014.1 |
| 20260831101302 | 20 | 336 | 0.0 | 0.0 | 0.00 | 1.07 | 0.00 | 90 | 1014.2 |
| 20260831100802 | 20 | 336 | 0.0 | 0.0 | 0.00 | 1.07 | 0.00 | 90 | 1014.2 |
| 20260831100301 | 20 | 336 | 0.0 | 0.0 | 0.00 | 1.07 | 0.00 | 90 | 1014.3 |
| 20260831095802 | 20 | 336 | 0.0 | 0.0 | 0.00 | 1.07 | 0.00 | 90 | 1014.2 |
| 20260831095301 | 20 | 336 | 0.0 | 0.0 | 0.00 | 1.07 | 0.00 | 90 | 1014.3 |
| 20260831094801 | 20 | 336 | 0.0 | 0.0 | 0.00 | 1.07 | 0.00 | 90 | 1014.3 |
| 20260831094302 | 20 | 336 | 0.0 | 0.0 | 0.00 | 1.07 | 0.00 | 90 | 1014.4 |
| 20260831093801 | 20 | 336 | 0.0 | 0.0 | 0.00 | 1.07 | 0.00 | 90 | 1014.4 |
| 20260831093301 | 20 | 336 | 0.0 | 1.6 | 0.00 | 1.07 | 0.00 | 90 | 1014.4 |
| 20260831092802 | 20 | 336 | 0.0 | 1.6 | 0.00 | 1.07 | 0.00 | 90 | 1014.4 |
| 20260831092306 | 20 | 336 | 0.0 | 1.6 | 0.00 | 1.07 | 0.00 | 90 | 1014.4 |
| 20260831091556 | 20 | 347 | 0.0 | 1.6 | 0.00 | 1.07 | 0.00 | 90 | 1014.3 |
| 20260831091055 | 20 | 349 | 0.0 | 1.6 | 0.00 | 1.07 | 0.00 | 90 | 1014.3 |
| 20260831090555 | 20 | 266 | 0.0 | 1.6 | 0.00 | 1.07 | 0.00 | 90 | 1014.4 |
| 20260831090056 | 20 | 288 | 0.0 | 1.6 | 0.00 | 1.07 | 0.00 | 90 | 1014.4 |
| 20260831085556 | 20 | 276 | 0.0 | 1.6 | 0.00 | 1.07 | 0.00 | 90 | 1014.4 |
| 20260831085055 | 20 | 276 | 0.0 | 3.2 | 0.00 | 1.07 | 0.00 | 90 | 1014.3 |
| 20260831084555 | 20 | 326 | 0.0 | 3.2 | 0.00 | 1.07 | 0.00 | 90 | 1014.3 |
| 20260831084055 | 20 | 258 | 0.0 | 1.6 | 0.00 | 1.07 | 0.00 | 90 | 1014.2 |
| 20260831083555 | 20 | 258 | 0.0 | 1.6 | 0.00 | 1.07 | 0.00 | 90 | 1014.3 |
| 20260831083055 | 20 | 258 | 0.0 | 3.2 | 0.00 | 1.07 | 0.00 | 90 | 1014.3 |
| 20260831082555 | 20 | 276 | 1.6 | 3.2 | 0.00 | 1.07 | 0.00 | 90 | 1014.1 |
| 20260831082055 | 20 | 165 | 0.0 | 1.6 | 0.00 | 1.07 | 0.00 | 90 | 1014.1 |
| 20260831081556 | 20 | 159 | 0.0 | 3.2 | 0.00 | 1.07 | 0.00 | 90 | 1014.3 |